TimeEST,TemperatureF,Dew PointF,Humidity,Sea Level PressureIn,VisibilityMPH,Wind Direction,Wind SpeedMPH,Gust SpeedMPH,PrecipitationIn,Events,Conditions,WindDirDegrees,DateUTC
12:51 AM,25.0,21.9,88,30.61,10.0,Calm,Calm,-,N/A,,Clear,0,2012-11-19 05:51:00
1:51 AM,23.0,21.0,92,30.61,10.0,Calm,Calm,-,N/A,,Clear,0,2012-11-19 06:51:00
2:51 AM,24.1,21.0,88,30.59,10.0,Calm,Calm,-,N/A,,Clear,0,2012-11-19 07:51:00
3:24 AM,24.8,21.2,86,30.58,10.0,Calm,Calm,-,N/A,,Partly Cloudy,0,2012-11-19 08:24:00
3:51 AM,23.0,19.9,88,30.60,10.0,Calm,Calm,-,N/A,,Partly Cloudy,0,2012-11-19 08:51:00
4:51 AM,23.0,21.9,96,30.59,10.0,Calm,Calm,-,N/A,,Partly Cloudy,0,2012-11-19 09:51:00
5:51 AM,24.1,21.0,88,30.58,10.0,Calm,Calm,-,N/A,Fog,Patches of Fog,0,2012-11-19 10:51:00
6:51 AM,21.9,19.9,92,30.58,10.0,Calm,Calm,-,N/A,Fog,Patches of Fog,0,2012-11-19 11:51:00
7:51 AM,26.1,23.0,88,30.57,10.0,Calm,Calm,-,N/A,,Partly Cloudy,0,2012-11-19 12:51:00
8:51 AM,30.0,27.0,88,30.56,10.0,North,4.6,-,N/A,,Partly Cloudy,360,2012-11-19 13:51:00
9:51 AM,35.1,28.9,78,30.54,10.0,Calm,Calm,-,N/A,,Partly Cloudy,0,2012-11-19 14:51:00
10:51 AM,39.0,28.9,67,30.51,10.0,Calm,Calm,-,N/A,,Partly Cloudy,0,2012-11-19 15:51:00
11:51 AM,43.0,28.0,56,30.48,10.0,Calm,Calm,-,N/A,,Partly Cloudy,0,2012-11-19 16:51:00
12:51 PM,45.0,26.1,48,30.45,10.0,Calm,Calm,-,N/A,,Partly Cloudy,0,2012-11-19 17:51:00
1:51 PM,46.9,24.1,41,30.42,10.0,Calm,Calm,-,N/A,,Partly Cloudy,0,2012-11-19 18:51:00
2:51 PM,48.0,24.1,39,30.39,10.0,Calm,Calm,-,N/A,,Partly Cloudy,0,2012-11-19 19:51:00
3:51 PM,48.0,23.0,37,30.38,10.0,Calm,Calm,-,N/A,,Partly Cloudy,0,2012-11-19 20:51:00
4:51 PM,39.9,24.1,53,30.38,10.0,Calm,Calm,-,N/A,,Partly Cloudy,0,2012-11-19 21:51:00
5:51 PM,35.1,24.1,64,30.37,10.0,Calm,Calm,-,N/A,,Partly Cloudy,0,2012-11-19 22:51:00
6:51 PM,33.1,24.1,70,30.36,10.0,Calm,Calm,-,N/A,,Clear,0,2012-11-19 23:51:00
7:51 PM,30.9,23.0,72,30.35,10.0,Calm,Calm,-,N/A,,Clear,0,2012-11-20 00:51:00
8:51 PM,28.9,21.9,75,30.34,10.0,Calm,Calm,-,N/A,,Clear,0,2012-11-20 01:51:00
9:51 PM,27.0,21.9,81,30.32,10.0,Calm,Calm,-,N/A,,Clear,0,2012-11-20 02:51:00
10:51 PM,26.1,21.9,84,30.30,9.0,Calm,Calm,-,N/A,,Clear,0,2012-11-20 03:51:00
11:51 PM,27.0,23.0,85,30.30,10.0,Calm,Calm,-,N/A,,Scattered Clouds,0,2012-11-20 04:51:00